User: anonymous   Login
Location: Acton
(51.4942°N, 0.2232°W)
Time: 17:42:31
(UTC+00:00)
Language:

CZ-2C R/B - Orbit

View from above orbital plane
View from above orbital plane
View from above satellite
View from above satellite

Ground track
Ground track

The orbit data is extracted from the following two-line orbital elements,

1 37766U 11039B   21169.59022391  .00000056  00000-0  19444-4 0  9990
2 37766  98.3332  35.5279 0044698 314.6187  45.1374 14.66574262529082
Epoch (UTC): 18 June 2021 14:09:55
Eccentricity: 0.0044698
inclination: 98.3332°
perigee height: 640 km
apogee height: 703 km
right ascension of ascending node: 35.5279°
argument of perigee: 314.6187°
revolutions per day: 14.66574262
mean anomaly at epoch: 45.1374°
orbit number at epoch: 52908

The dashed part of the orbit path shows where the satellite is in the earth's shadow,  

DLR